| time (UTC) | temp F | wind direction | speed MPH | gust MPH | rain 1hr in | rain 24hr in | rain mn in | humidity % | barometer mb |
| 20260905213044 | 78 | 333 | 1.0 | 4.0 | 0.00 | 0.45 | 0.45 | 71 | 1010.1 |
| 20260905211543 | 78 | 324 | 1.0 | 3.0 | 0.00 | 0.45 | 0.45 | 70 | 1010.1 |
| 20260905210044 | 78 | 318 | 2.0 | 8.0 | 0.00 | 0.45 | 0.45 | 69 | 1010.2 |
| 20260905204543 | 78 | 327 | 2.0 | 5.0 | 0.00 | 0.47 | 0.45 | 69 | 1010.1 |
| 20260905203041 | 78 | 22 | 1.0 | 4.0 | 0.00 | 0.47 | 0.45 | 70 | 1010.2 |
| 20260905201539 | 77 | 344 | 2.0 | 5.0 | 0.00 | 0.47 | 0.45 | 71 | 1010.4 |
| 20260905200041 | 79 | 345 | 2.0 | 6.0 | 0.00 | 0.47 | 0.45 | 67 | 1010.5 |
| 20260905194535 | 78 | 318 | 3.0 | 8.0 | 0.00 | 1.13 | 0.45 | 67 | 1010.6 |
| 20260905193040 | 78 | 13 | 2.0 | 5.0 | 0.00 | 1.13 | 0.45 | 69 | 1010.7 |
| 20260905191531 | 78 | 339 | 2.0 | 5.0 | 0.00 | 1.13 | 0.45 | 70 | 1011.0 |
| 20260905190040 | 78 | 340 | 3.0 | 6.0 | 0.00 | 1.13 | 0.45 | 71 | 1011.0 |
| 20260905184532 | 78 | 17 | 2.0 | 5.0 | 0.00 | 1.15 | 0.45 | 72 | 1011.3 |
| 20260905183028 | 78 | 355 | 2.0 | 4.0 | 0.00 | 1.15 | 0.45 | 70 | 1011.4 |
| 20260905181525 | 77 | 19 | 3.0 | 8.0 | 0.00 | 1.15 | 0.45 | 73 | 1011.7 |
| 20260905180030 | 77 | 322 | 3.0 | 6.0 | 0.00 | 1.15 | 0.45 | 76 | 1011.8 |
| 20260905174523 | 77 | 341 | 3.0 | 10.0 | 0.00 | 1.15 | 0.45 | 76 | 1011.9 |
| 20260905173020 | 74 | 34 | 1.0 | 6.0 | 0.00 | 1.15 | 0.45 | 83 | 1011.7 |
| 20260905171521 | 75 | 355 | 1.0 | 4.0 | 0.00 | 1.15 | 0.45 | 81 | 1011.7 |
| 20260905170016 | 74 | 32 | 0.0 | 3.0 | 0.00 | 1.15 | 0.45 | 83 | 1011.9 |
| 20260905164513 | 74 | 355 | 0.0 | 3.0 | 0.00 | 1.15 | 0.45 | 86 | 1012.1 |
| 20260905163009 | 72 | 175 | 0.0 | 2.0 | 0.00 | 1.15 | 0.45 | 92 | 1012.1 |
| 20260905161511 | 70 | 340 | 0.0 | 3.0 | 0.00 | 1.15 | 0.45 | 95 | 1012.4 |
| 20260905160006 | 69 | 355 | 1.0 | 5.0 | 0.01 | 1.15 | 0.45 | 96 | 1012.8 |
| 20260905154501 | 69 | 14 | 1.0 | 3.0 | 0.01 | 1.15 | 0.45 | 96 | 1012.3 |
| 20260905153059 | 69 | 297 | 0.0 | 3.0 | 0.02 | 1.15 | 0.45 | 96 | 1011.9 |
| 20260905151558 | 67 | 156 | 0.0 | 5.0 | 0.04 | 1.15 | 0.45 | 96 | 1011.4 |
| 20260905150057 | 67 | 156 | 1.0 | 3.0 | 0.06 | 1.14 | 0.44 | 96 | 1011.9 |
| 20260905144557 | 67 | 148 | 0.0 | 5.0 | 0.09 | 1.14 | 0.44 | 96 | 1012.2 |
| 20260905143058 | 67 | 161 | 0.0 | 2.0 | 0.12 | 1.13 | 0.43 | 96 | 1012.8 |
| 20260905141555 | 67 | 184 | 2.0 | 5.0 | 0.14 | 1.11 | 0.40 | 96 | 1013.0 |
| 20260905140153 | 67 | 162 | 2.0 | 3.0 | 0.18 | 1.09 | 0.38 | 96 | 1013.6 |
| 20260905134600 | 68 | 294 | 0.0 | 3.0 | 0.17 | 1.06 | 0.35 | 96 | 1014.0 |
| 20260905133051 | 68 | 330 | 0.0 | 2.0 | 0.30 | 1.02 | 0.31 | 96 | 1013.9 |
| 20260905131547 | 68 | 311 | 0.0 | 2.0 | 0.25 | 0.97 | 0.26 | 96 | 1013.7 |
| 20260905130046 | 68 | 10 | 2.0 | 6.0 | 0.19 | 0.91 | 0.20 | 96 | 1013.5 |
| 20260905124547 | 67 | 178 | 0.0 | 4.0 | 0.17 | 0.89 | 0.18 | 96 | 1012.6 |
| 20260905123043 | 67 | 153 | 0.0 | 1.0 | 0.00 | 0.72 | 0.01 | 96 | 1012.3 |
| 20260905121545 | 67 | 153 | 0.0 | 1.0 | 0.00 | 0.72 | 0.01 | 96 | 1011.8 |
| 20260905120053 | 67 | 154 | 0.0 | 1.0 | 0.00 | 0.72 | 0.01 | 96 | 1011.7 |
| 20260905114550 | 67 | 154 | 0.0 | 1.0 | 0.00 | 0.72 | 0.01 | 96 | 1011.4 |
| 20260905113046 | 67 | 154 | 0.0 | 0.0 | 0.00 | 0.72 | 0.01 | 96 | 1011.5 |
| 20260905111612 | 66 | 154 | 0.0 | 0.0 | 0.00 | 0.72 | 0.01 | 96 | 1011.5 |
| 20260905110036 | 66 | 154 | 0.0 | 1.0 | 0.00 | 0.72 | 0.01 | 96 | 1011.4 |
| 20260905104534 | 66 | 154 | 0.0 | 1.0 | 0.00 | 0.72 | 0.01 | 96 | 1011.4 |
| 20260905103036 | 66 | 153 | 0.0 | 2.0 | 0.00 | 0.72 | 0.01 | 96 | 1011.2 |
| 20260905101534 | 66 | 154 | 0.0 | 3.0 | 0.00 | 0.72 | 0.01 | 96 | 1011.3 |
| 20260905100033 | 66 | 164 | 0.0 | 0.0 | 0.00 | 0.72 | 0.01 | 96 | 1011.5 |
| 20260905094534 | 66 | 164 | 0.0 | 0.0 | 0.00 | 0.72 | 0.01 | 95 | 1011.3 |
| 20260905093036 | 66 | 164 | 0.0 | 0.0 | 0.00 | 0.72 | 0.01 | 95 | 1011.5 |
| 20260905091531 | 66 | 164 | 0.0 | 0.0 | 0.00 | 0.72 | 0.01 | 96 | 1011.5 |
| 20260905090030 | 66 | 164 | 0.0 | 0.0 | 0.00 | 0.72 | 0.01 | 96 | 1011.4 |
| 20260905084532 | 66 | 164 | 0.0 | 0.0 | 0.00 | 0.72 | 0.01 | 95 | 1011.2 |
| 20260905083026 | 66 | 164 | 0.0 | 0.0 | 0.00 | 0.72 | 0.01 | 95 | 1011.6 |
| 20260905081525 | 66 | 164 | 0.0 | 0.0 | 0.00 | 0.72 | 0.01 | 95 | 1011.6 |
| 20260905080031 | 66 | 164 | 0.0 | 0.0 | 0.01 | 0.72 | 0.01 | 95 | 1011.7 |
| 20260905074526 | 66 | 164 | 0.0 | 0.0 | 0.01 | 0.72 | 0.01 | 95 | 1011.8 |
| 20260905073029 | 66 | 164 | 0.0 | 0.0 | 0.01 | 0.72 | 0.01 | 95 | 1011.9 |
| 20260905071522 | 66 | 164 | 0.0 | 0.0 | 0.01 | 0.72 | 0.01 | 95 | 1012.0 |
| 20260905070033 | 66 | 164 | 0.0 | 0.0 | 0.00 | 0.71 | 0.00 | 95 | 1012.4 |
| 20260905064535 | 66 | 164 | 0.0 | 1.0 | 0.00 | 0.71 | 0.00 | 95 | 1012.7 |
| 20260905063016 | 66 | 164 | 1.0 | 2.0 | 0.00 | 0.71 | 0.00 | 95 | 1012.9 |
| 20260905061512 | 65 | 164 | 1.0 | 3.0 | 0.00 | 0.71 | 0.00 | 95 | 1013.2 |
| 20260905060009 | 65 | 164 | 0.0 | 3.0 | 0.00 | 0.71 | 0.00 | 95 | 1013.4 |
| 20260905054508 | 65 | 164 | 0.0 | 0.0 | 0.00 | 0.72 | 0.00 | 95 | 1013.6 |
| 20260905053005 | 65 | 164 | 0.0 | 1.0 | 0.00 | 0.72 | 0.00 | 95 | 1013.9 |
| 20260905051510 | 65 | 169 | 1.0 | 2.0 | 0.00 | 0.72 | 0.00 | 95 | 1013.9 |
| 20260905050002 | 65 | 169 | 0.0 | 2.0 | 0.00 | 0.72 | 0.00 | 95 | 1014.0 |
| 20260905044600 | 65 | 169 | 1.0 | 3.0 | 0.00 | 0.72 | 0.00 | 95 | 1014.0 |
| 20260905043106 | 65 | 157 | 1.0 | 3.0 | 0.00 | 0.72 | 0.00 | 95 | 1014.2 |
| 20260905041601 | 65 | 157 | 0.0 | 1.0 | 0.00 | 0.72 | 0.00 | 95 | 1014.3 |
| 20260905040055 | 65 | 157 | 0.0 | 3.0 | 0.00 | 0.72 | 0.00 | 95 | 1014.3 |
| 20260905034554 | 66 | 175 | 0.0 | 0.0 | 0.00 | 1.08 | 0.72 | 95 | 1014.3 |
| 20260905033051 | 66 | 175 | 0.0 | 0.0 | 0.00 | 1.08 | 0.72 | 95 | 1014.1 |
| 20260905031552 | 66 | 175 | 0.0 | 2.0 | 0.00 | 1.08 | 0.72 | 95 | 1013.8 |
| 20260905030107 | 66 | 175 | 1.0 | 2.0 | 0.00 | 1.08 | 0.72 | 95 | 1013.7 |
| 20260905024551 | 66 | 161 | 1.0 | 3.0 | 0.00 | 1.08 | 0.72 | 95 | 1013.7 |
| 20260905023048 | 66 | 162 | 2.0 | 4.0 | 0.00 | 1.08 | 0.72 | 95 | 1013.7 |
| 20260905021549 | 66 | 162 | 0.0 | 2.0 | 0.00 | 1.08 | 0.72 | 95 | 1013.7 |
| 20260905020049 | 66 | 164 | 2.0 | 4.0 | 0.00 | 1.08 | 0.72 | 95 | 1013.2 |
| 20260905014554 | 66 | 155 | 1.0 | 3.0 | 0.00 | 1.08 | 0.72 | 95 | 1013.3 |
| 20260905013049 | 66 | 150 | 0.0 | 1.0 | 0.00 | 1.08 | 0.72 | 94 | 1013.3 |
| 20260905011548 | 66 | 150 | 0.0 | 2.0 | 0.00 | 1.08 | 0.72 | 94 | 1013.2 |
| 20260905010047 | 67 | 150 | 0.0 | 3.0 | 0.00 | 1.08 | 0.72 | 94 | 1012.9 |
| 20260905004545 | 67 | 167 | 0.0 | 3.0 | 0.00 | 1.08 | 0.72 | 94 | 1012.8 |
| 20260905003045 | 67 | 173 | 1.0 | 6.0 | 0.00 | 1.08 | 0.72 | 94 | 1012.6 |
| 20260905001546 | 68 | 150 | 1.0 | 5.0 | 0.00 | 1.08 | 0.72 | 94 | 1012.7 |
| 20260905000045 | 68 | 148 | 0.0 | 2.0 | 0.00 | 1.08 | 0.72 | 93 | 1012.6 |
| 20260904234547 | 68 | 148 | 1.0 | 3.0 | 0.00 | 1.08 | 0.72 | 93 | 1012.4 |
| 20260904233045 | 69 | 153 | 1.0 | 4.0 | 0.00 | 1.08 | 0.72 | 93 | 1012.5 |
| 20260904231542 | 69 | 155 | 0.0 | 3.0 | 0.00 | 1.08 | 0.72 | 93 | 1012.7 |
| 20260904230042 | 70 | 145 | 0.0 | 5.0 | 0.00 | 1.08 | 0.72 | 93 | 1013.1 |
| 20260904224542 | 69 | 167 | 0.0 | 3.0 | 0.00 | 1.08 | 0.72 | 94 | 1012.9 |
| 20260904223049 | 68 | 157 | 2.0 | 4.0 | 0.00 | 1.08 | 0.72 | 94 | 1013.0 |
| 20260904221549 | 68 | 148 | 0.0 | 2.0 | 0.00 | 1.08 | 0.72 | 94 | 1013.3 |
| 20260904220055 | 68 | 148 | 0.0 | 7.0 | 0.00 | 1.08 | 0.72 | 94 | 1013.3 |
| 20260904214541 | 68 | 159 | 2.0 | 5.0 | 0.00 | 1.08 | 0.72 | 94 | 1013.6 |